Location: Fontevrault
(47.1823°N, 0.0493°E)
Time: 09:25:55
(UTC+00:00)

Meteor 1-24 Rocket - Pass Details

Date: 16 June 2021
Orbit: 791 x 927 km, 81.3° (Epoch: 03 August)

Event Time Altitude Azimuth Distance (km) Brightness Sun altitude
Exits shadow 23:13:11 18° 220° (SW) 1,874 5.2 -18.6°
Maximum altitude 23:16:55 46° 287° (WNW) 1,074 4.4 -18.7°
Drops below altitude 10° 23:22:11 10° 1° (N) 2,434 7.3 -18.9°
Sets 23:24:44 0° 7° (N) 3,391 8.3 -19.0°
